Prague, Czech Republic

7:18 AM CEST on October 19, 2017 (GMT +0200)
Ruzyne

Weather History for LKPR - December, 2005

Change the Weather History Date:

Friday, December 2, 2005

  Actual Average Record
Temperature  
Mean Temperature 22 °F -  
Max Temperature 28 °F 35 °F 50 °F (2015)
Min Temperature 16 °F 26 °F 12 °F (2010)
Degree Days  
Heating Degree Days 43    
Moisture  
Dew Point 23 °F    
Average Humidity 95    
Maximum Humidity 100    
Minimum Humidity 93    
Precipitation  
Precipitation 0.00 in 0.03 in - ()
Sea Level Pressure  
Sea Level Pressure 29.78 in    
Wind  
Wind Speed 4 mph ()    
Max Wind Speed 9 mph    
Max Gust Speed -    
Visibility 2.1 miles    
Events Fog    
Averages and records for this station are not official NWS values.
T = Trace of Precipitation, MM = Missing Value Source: Averaged Metar Reports

Daily Weather History Graph

Daily Weather History Graph

Search for Another Location

Airport or City:

Trip Planner

Search our weather history database for the weather conditions in past years. The results will help you decide how hot, cold, wet, or windy it might be!

Date:

Astronomy

Dec. 02, 2005 Rise Set
Actual Time 7:41 AM CET 4:03 PM CET
Civil Twilight 7:03 AM CET 4:40 PM CET
Nautical Twilight 6:22 AM CET 5:21 PM CET
Astronomical Twilight 5:43 AM CET 6:00 PM CET
Moon 9:07 AM CET (12/2) 4:07 PM CET (12/2)
Length of Visible Light 9h 36m
Length of Day
8h 21m
New Moon, 1% of the Moon is Illuminated
Dec 2
New Moon
Dec 8
First Quarter
Dec 15
Full
Dec 23
Last Quarter
Dec 31
New

Hourly Weather History & Observations

Time (CET) Temp. Windchill Dew Point Humidity Pressure Visibility Wind Dir Wind Speed Gust Speed Precip Events Conditions
12:00 AM 23.0 °F 14.7 °F 23.0 °F 100% 29.86 in 1.6 mi East 6.9 mph - N/A Fog Fog
12:30 AM 24.8 °F 19.1 °F 23.0 °F 93% 29.86 in 0.6 mi East 4.6 mph - N/A Fog Patches of Fog
12:46 AM 23.0 °F 18.4 °F 21.2 °F 93% 29.83 in 0.2 mi East 3.5 mph - N/A Fog Light Freezing Fog
1:00 AM 19 °F - 18 °F 96% 29.95 in 0 mi ESE 2.2 mph - - Fog Fog
1:00 AM 19.4 °F 14.3 °F 17.6 °F 93% 29.83 in 0.1 mi East 3.5 mph - N/A Fog Light Freezing Fog
1:06 AM 19.4 °F - 19.4 °F 100% 29.83 in 0.1 mi Calm Calm - N/A Fog Light Freezing Fog
1:30 AM 19.4 °F - 17.6 °F 93% 29.83 in 0.1 mi Variable 2.3 mph - N/A Fog Light Freezing Fog
1:33 AM 17.6 °F - 15.8 °F 93% 29.83 in 0.1 mi Variable 2.3 mph - N/A Fog Light Freezing Fog
2:00 AM 17.6 °F - 15.8 °F 93% 29.83 in 0.3 mi Calm Calm - N/A Fog Light Freezing Fog
2:19 AM 23.0 °F 18.4 °F 23.0 °F 100% 29.83 in 0.7 mi East 3.5 mph - N/A Fog Patches of Fog
2:30 AM 23.0 °F 18.4 °F 21.2 °F 93% 29.83 in 1.2 mi ESE 3.5 mph - N/A Fog Patches of Fog
3:00 AM 21.2 °F 16.4 °F 19.4 °F 93% 29.83 in 1.9 mi ESE 3.5 mph - N/A Fog Fog
3:06 AM 23.0 °F - 21.2 °F 93% 29.83 in 1.6 mi Variable 2.3 mph - N/A Fog Patches of Fog
3:30 AM 21.2 °F - 21.2 °F 100% 29.83 in 2.2 mi SSE 2.3 mph - N/A Fog Clear
4:00 AM 23.0 °F - 21.2 °F 93% 29.80 in 2.2 mi ESE 2.3 mph - N/A Fog Clear
4:30 AM 21.2 °F - 21.2 °F 100% 29.80 in 2.2 mi ESE 2.3 mph - N/A Fog Clear
5:00 AM 21.2 °F 16.4 °F 21.2 °F 100% 29.80 in 2.2 mi East 3.5 mph - N/A   Clear
5:30 AM 21.2 °F 16.4 °F 19.4 °F 93% 29.80 in 1.9 mi East 3.5 mph - N/A   Clear
6:00 AM 21.2 °F 16.4 °F 21.2 °F 100% 29.80 in 1.9 mi ESE 3.5 mph - N/A   Clear
6:30 AM 21.2 °F 14.9 °F 19.4 °F 93% 29.80 in 2.2 mi ESE 4.6 mph - N/A   Scattered Clouds
6:46 AM 21.2 °F 16.4 °F 19.4 °F 93% 29.80 in 2.5 mi SE 3.5 mph - N/A   Mostly Cloudy
7:00 AM 21 °F - 20 °F 94% 29.90 in 3 mi SSE 4.5 mph - -   Mist
7:00 AM 21.2 °F 16.4 °F 21.2 °F 100% 29.80 in 3.1 mi SSE 3.5 mph - N/A   Mostly Cloudy
7:30 AM 23.0 °F 18.4 °F 21.2 °F 93% 29.80 in 2.2 mi ESE 3.5 mph - N/A   Mostly Cloudy
8:00 AM 23.0 °F - 21.2 °F 93% 29.80 in 2.2 mi Variable 2.3 mph - N/A   Mostly Cloudy
8:30 AM 24.8 °F 19.1 °F 23.0 °F 93% 29.80 in 2.2 mi ESE 4.6 mph - N/A   Mostly Cloudy
9:00 AM 24.8 °F 20.5 °F 24.8 °F 100% 29.80 in 2.5 mi East 3.5 mph - N/A   Overcast
9:30 AM 26.6 °F 20.0 °F 24.8 °F 93% 29.80 in 2.8 mi SE 5.8 mph - N/A   Overcast
10:00 AM 26.6 °F 21.2 °F 26.6 °F 100% 29.80 in 3.1 mi East 4.6 mph - N/A   Mostly Cloudy
10:30 AM 26.6 °F 21.2 °F 26.6 °F 100% 29.80 in 3.1 mi SE 4.6 mph - N/A   Mostly Cloudy
11:00 AM 26.6 °F 21.2 °F 26.6 °F 100% 29.80 in 3.7 mi SE 4.6 mph - N/A   Mostly Cloudy
11:30 AM 28.4 °F 23.3 °F 26.6 °F 93% 29.77 in 4.3 mi SE 4.6 mph - N/A   Mostly Cloudy
12:00 PM 28.4 °F 23.3 °F 26.6 °F 93% 29.77 in 3.1 mi ESE 4.6 mph - N/A   Mostly Cloudy
12:30 PM 28.4 °F 22.2 °F 26.6 °F 93% 29.77 in 2.8 mi ENE 5.8 mph - N/A   Mostly Cloudy
1:00 PM 28 °F - 27 °F 93% 29.84 in 2 mi East 6.7 mph - -   Mist
1:00 PM 28.4 °F 22.2 °F 26.6 °F 93% 29.77 in 1.6 mi ENE 5.8 mph - N/A   Mostly Cloudy
1:30 PM 28.4 °F 23.3 °F 26.6 °F 93% 29.74 in 1.6 mi ENE 4.6 mph - N/A   Mostly Cloudy
2:00 PM 28.4 °F 23.3 °F 26.6 °F 93% 29.74 in 1.6 mi NE 4.6 mph - N/A   Overcast
2:14 PM 28.4 °F 22.2 °F 26.6 °F 93% 29.74 in 1.5 mi ENE 5.8 mph - N/A   Mostly Cloudy
2:30 PM 28.4 °F 23.3 °F 26.6 °F 93% 29.74 in 1.3 mi NNE 4.6 mph - N/A   Overcast
3:00 PM 28.4 °F 22.2 °F 26.6 °F 93% 29.74 in 1.2 mi NE 5.8 mph - N/A   Overcast
3:30 PM 28.4 °F 20.4 °F 26.6 °F 93% 29.74 in 1.3 mi NE 8.1 mph - N/A   Overcast
4:00 PM 28.4 °F 22.2 °F 26.6 °F 93% 29.74 in 1.5 mi NE 5.8 mph - N/A   Overcast
4:30 PM 26.6 °F 21.2 °F 26.6 °F 100% 29.74 in 1.7 mi NE 4.6 mph - N/A   Overcast
5:00 PM 24.8 °F 17.9 °F 23.0 °F 93% 29.71 in - ENE 5.8 mph - N/A   Partly Cloudy
5:30 PM 24.8 °F 16.9 °F 23.0 °F 93% 29.71 in 2.5 mi ENE 6.9 mph - N/A   Partly Cloudy
6:00 PM 24.8 °F 19.1 °F 23.0 °F 93% 29.71 in 2.5 mi NE 4.6 mph - N/A   Partly Cloudy
6:30 PM 23.0 °F 17.0 °F 21.2 °F 93% 29.71 in 1.7 mi NE 4.6 mph - N/A   Partly Cloudy
7:00 PM 22 °F - 21 °F 93% 29.81 in 2 mi East 4.5 mph - -   Mist
7:00 PM 21.2 °F 13.6 °F 21.2 °F 100% 29.71 in 2.2 mi ENE 5.8 mph - N/A   Partly Cloudy
7:30 PM 23.0 °F 17.0 °F 21.2 °F 93% 29.71 in 2.2 mi East 4.6 mph - N/A   Partly Cloudy
8:00 PM 23.0 °F 17.0 °F 21.2 °F 93% 29.71 in 2.2 mi East 4.6 mph - N/A   Clear
8:30 PM 21.2 °F 13.6 °F 21.2 °F 100% 29.71 in 2.5 mi ESE 5.8 mph - N/A   Clear
8:48 PM 23.0 °F 17.0 °F 23.0 °F 100% 29.71 in 2.5 mi East 4.6 mph - N/A   Mostly Cloudy
9:00 PM 23.0 °F 17.0 °F 23.0 °F 100% 29.71 in 2.5 mi ESE 4.6 mph - N/A   Mostly Cloudy
9:30 PM 23.0 °F 18.4 °F 23.0 °F 100% 29.71 in 2.5 mi ESE 3.5 mph - N/A   Mostly Cloudy
10:00 PM 24.8 °F 17.9 °F 24.8 °F 100% 29.68 in 2.8 mi East 5.8 mph - N/A   Mostly Cloudy
10:30 PM 26.6 °F 19.1 °F 24.8 °F 93% 29.68 in 3.7 mi East 6.9 mph - N/A   Overcast
11:00 PM 26.6 °F 17.5 °F 24.8 °F 93% 29.68 in 5.0 mi ESE 9.2 mph - N/A   Overcast
11:30 PM 26.6 °F 18.2 °F 24.8 °F 93% 29.71 in 6.2 mi SE 8.1 mph - N/A   Overcast